Home   Weather   Winamac   Past weeks
Flag for USA

Past Weather in Winamac, Indiana, USA — Yesterday and Last 2 Weeks

Now
80 °F

Clear.


Feels Like: 85 °F
Forecast: 92 / 77 °F
Wind: 10 mph from Southwest

Location: Porter County Municipal Airport

Current Time: Jul 19, 2019 at 6:18:16 am

Latest Report: Jul 19, 2019 at 4:56 am


Visibility: 10 mi

Pressure: 29.82 "Hg

Humidity: 85%

Dew Point: 75 °F

Location of WinamacLocation

Past Weather in Winamac — Graph

°F

Winamac Temperature Yesterday

Maximum temperature yesterday: 88 °F (at 5:56 pm)
Minimum temperature yesterday: 73 °F (at 12:22 pm)
Average temperature yesterday: 78 °F

High & Low Weather Summary for the Past Weeks

 TemperatureHumidityPressure
High94 °F (Jul 10, 3:56 pm)91% (Jul 4, 6:56 am)30.13 "Hg (Jul 4, 6:56 am)
Low61 °F (Jul 9, 6:56 am)36% (Jul 12, 5:56 pm)29.77 "Hg (Jul 18, 6:56 pm)
Average78 °F69%29.97 "Hg
* Reported Jul 4 4:42 am — Jul 19 4:56 am, Winamac. Weather by CustomWeather, © 2019

Note: Actual official high and low records may vary slightly from our data, if they occured in-between our weather recording intervals... More about our weather records

Advertising

Winamac Weather History for the Previous 24 Hours

Scroll right to see more
 ConditionsComfort  
Time TempWeatherWind HumidityBarometerVisibility
4:56 am
Fri, Jul 19
80 °FClear.10 mph85%29.82 "Hg10 mi
3:56 am80 °FClear.10 mph85%29.83 "Hg10 mi
2:56 am80 °FClear.8 mph85%29.83 "Hg10 mi
1:56 am80 °FClear.8 mph85%29.84 "Hg10 mi
12:56 am81 °FClear.7 mph82%29.83 "Hg10 mi
12:15 am81 °FPassing clouds.6 mph82%29.85 "Hg10 mi
11:56 pm
Thu, Jul 18
82 °FPassing clouds.6 mph79%29.83 "Hg10 mi
10:56 pm83 °FClear.6 mph77%29.82 "Hg10 mi
9:56 pm85 °FClear.9 mph72%29.79 "Hg10 mi
8:56 pm87 °FClear.14 mph69%29.78 "Hg10 mi
7:56 pm88 °FSunny.9 mph70%29.77 "Hg10 mi
6:56 pm88 °FSunny.15 mph67%29.77 "Hg10 mi
5:56 pm88 °FSunny.13 mph65%29.78 "Hg10 mi
4:56 pm85 °FSunny.15 mph68%29.79 "Hg10 mi
3:56 pm81 °FSunny.13 mph74%29.83 "Hg10 mi
2:56 pm75 °FScattered clouds.13 mph85%29.86 "Hg10 mi
2:12 pm74 °FThundershowers. Mostly cloudy.9 mph88%29.98 "Hg10 mi
1:56 pm73 °FRain. Partly sunny.5 mph88%29.97 "Hg10 mi
12:56 pm74 °FRain. Broken clouds.8 mph88%29.98 "Hg10 mi
12:44 pm73 °FRain. Cloudy.9 mph88%29.96 "Hg10 mi
12:22 pm73 °FThundershowers. Cloudy.3 mph88%29.98 "HgN/A
11:56 am74 °FThunderstorms. Broken clouds.3 mph85%29.97 "Hg10 mi
11:36 am74 °FOvercast.5 mph85%29.98 "Hg10 mi
11:17 am74 °FThundershowers. Overcast.8 mph85%29.97 "Hg10 mi
11:09 am75 °FThunderstorms. Low clouds.9 mph85%29.97 "Hg10 mi
10:56 am75 °FThunderstorms. Mostly cloudy.15 mph85%29.94 "Hg10 mi
10:37 am76 °FThunderstorms. Broken clouds.8 mph85%29.95 "Hg10 mi
9:56 am79 °FScattered clouds.7 mph77%29.90 "Hg10 mi
8:56 am78 °FPassing clouds.7 mph82%29.89 "Hg10 mi
7:56 am77 °FScattered clouds.8 mph85%29.90 "Hg10 mi
6:56 am75 °FPassing clouds.5 mph88%29.90 "Hg10 mi
Weather by CustomWeather, © 2019

See weather overview